Metcalfe, MS

4:27 AM CDT on September 26, 2016 (GMT -0500)
Mid Delta Regional

Weather History for KGLH - January, 2014

Change the Weather History Date:

Wednesday, January 15, 2014

  Actual Average Record
Temperature  
Mean Temperature 38 °F 42 °F  
Max Temperature 49 °F 51 °F 81 °F (1947)
Min Temperature 26 °F 33 °F 11 °F (1982)
Degree Days  
Heating Degree Days 27 23  
Month to date heating degree days 368 342  
Since 1 July heating degree days 1544 1426  
Cooling Degree Days 0 0  
Month to date cooling degree days 0 0  
Year to date cooling degree days 0 0  
Moisture  
Dew Point 21 °F    
Average Humidity 56    
Maximum Humidity 81    
Minimum Humidity 31    
Precipitation  
Precipitation 0.00 in 0.16 in 1.02 in (1962)
Month to date precipitation 0.84 2.22  
Year to date precipitation 0.84 2.22  
Sea Level Pressure  
Sea Level Pressure 30.23 in    
Wind  
Wind Speed 10 mph (NW)    
Max Wind Speed 22 mph    
Max Gust Speed 26 mph    
Visibility 10 miles    
Events      
T = Trace of Precipitation, MM = Missing Value Source: NWS Daily Summary

Daily Weather History Graph

Daily Weather History Graph

Search for Another Location

Airport or City:

Trip Planner

Search our weather history database for the weather conditions in past years. The results will help you decide how hot, cold, wet, or windy it might be!

Date:

Astronomy

Jan. 15, 2014 Rise Set
Actual Time 7:08 AM CST 5:19 PM CST
Civil Twilight 6:41 AM CST 5:46 PM CST
Nautical Twilight 6:10 AM CST 6:16 PM CST
Astronomical Twilight 5:40 AM CST 6:46 PM CST
Moon 5:14 PM CST (1/15) 6:26 AM CST (1/15)
Length of Visible Light 11h 05m
Length of Day
10h 11m
Full, 100% of the Moon is Illuminated
Jan 15
Full
Jan 15
Full
Jan 23
Last Quarter
Jan 30
New
Feb 6
First Quarter

Hourly Weather History & Observations

Time (CST) Temp. Windchill Dew Point Humidity Pressure Visibility Wind Dir Wind Speed Gust Speed Precip Events Conditions
12:53 AM 46.9 °F - 28.9 °F 50% 30.17 in 10.0 mi NNW 12.7 mph - N/A   Scattered Clouds
1:53 AM 45.0 °F 39.3 °F 27.0 °F 49% 30.19 in 10.0 mi North 11.5 mph - N/A   Partly Cloudy
2:53 AM 43.0 °F 36.0 °F 24.1 °F 47% 30.21 in 10.0 mi NNW 13.8 mph - N/A   Clear
3:53 AM 39.9 °F 32.9 °F 21.9 °F 49% 30.23 in 10.0 mi NNW 11.5 mph - N/A   Clear
4:53 AM 37.0 °F 31.0 °F 24.1 °F 59% 30.23 in 10.0 mi NW 8.1 mph - N/A   Clear
5:53 AM 35.1 °F 30.1 °F 21.9 °F 59% 30.23 in 10.0 mi WNW 5.8 mph - N/A   Clear
6:53 AM 32.0 °F 28.7 °F 21.9 °F 66% 30.24 in 10.0 mi West 3.5 mph - N/A   Clear
7:53 AM 34.0 °F - 25.0 °F 70% 30.26 in 10.0 mi Calm Calm - N/A   Clear
8:53 AM 39.9 °F 33.9 °F 25.0 °F 55% 30.28 in 10.0 mi WNW 9.2 mph - N/A   Clear
9:42 AM 44.6 °F - 19.4 °F 37% - - North - - N/A   Clear
9:53 AM 44.1 °F 36.5 °F 19.9 °F 38% 30.29 in 10.0 mi NW 17.3 mph 24.2 mph N/A   Clear
10:53 AM 45.0 °F 38.2 °F 19.0 °F 36% 30.27 in 10.0 mi NNW 15.0 mph 23.0 mph N/A   Partly Cloudy
11:53 AM 46.0 °F 38.8 °F 17.1 °F 31% 30.25 in 10.0 mi WNW 18.4 mph 23.0 mph N/A   Clear
12:53 PM 45.0 °F 37.6 °F 16.0 °F 31% 30.23 in 10.0 mi NNW 17.3 mph - N/A   Clear
1:53 PM 45.0 °F 37.4 °F 18.0 °F 34% 30.22 in 10.0 mi NNW 18.4 mph 26.5 mph N/A   Clear
2:53 PM 45.0 °F 37.6 °F 17.1 °F 33% 30.23 in 10.0 mi NW 17.3 mph 20.7 mph N/A   Clear
3:53 PM 44.1 °F 37.1 °F 15.1 °F 31% 30.22 in 10.0 mi North 15.0 mph - N/A   Clear
4:53 PM 39.9 °F 33.9 °F 18.0 °F 41% 30.23 in 10.0 mi North 9.2 mph - N/A   Clear
5:53 PM 35.1 °F 31.0 °F 19.9 °F 54% 30.24 in 10.0 mi North 4.6 mph - N/A   Clear
6:53 PM 33.1 °F - 21.0 °F 61% 30.25 in 10.0 mi Calm Calm - N/A   Clear
7:53 PM 28.9 °F - 21.9 °F 75% 30.25 in 10.0 mi Calm Calm - N/A   Clear
8:53 PM 27.0 °F 20.5 °F 21.0 °F 78% 30.24 in 10.0 mi South 5.8 mph - N/A   Clear
9:53 PM 27.0 °F 21.6 °F 21.0 °F 78% 30.23 in 10.0 mi South 4.6 mph - N/A   Clear
10:53 PM 28.9 °F 22.8 °F 23.0 °F 78% 30.21 in 10.0 mi South 5.8 mph - N/A   Clear
11:53 PM 28.9 °F 22.8 °F 21.9 °F 75% 30.19 in 10.0 mi SSW 5.8 mph - N/A   Clear